FW4608 Weather Reports


time (UTC)temp
C
wind
direction
speed
KPH
gust
KPH
rain 1hr
cm
rain 24hr
cm
rain mn
cm
humidity
%
barometer
mb
20260831234004 27 319 0.0 3.2 0.00 0.00 0.00 84 1016.7
20260831233504 27 304 0.0 3.2 0.00 0.00 0.00 84 1016.7
20260831233002 27 328 0.0 1.6 0.00 0.00 0.00 84 1016.9
20260831232501 27 314 0.0 1.6 0.00 0.00 0.00 83 1017.0
20260831232100 28 304 0.0 1.6 0.00 0.00 0.00 83 1017.0
20260831231601 28 304 0.0 3.2 0.00 0.00 0.00 83 1017.0
20260831231100 28 70 0.0 6.4 0.00 0.00 0.00 82 1016.9
20260831230558 28 184 0.0 3.2 0.00 0.00 0.00 82 1016.9
20260831225558 28 285 0.0 1.6 0.00 0.00 0.00 81 1016.9
20260831225057 28 168 0.0 8.0 0.00 0.00 0.00 81 1017.0
20260831224600 28 311 0.0 8.0 0.00 0.00 0.00 80 1016.9
20260831224057 29 342 0.0 6.4 0.00 0.00 0.00 79 1016.7
20260831223556 30 283 0.0 8.0 0.00 0.00 0.00 79 1016.6
20260831223054 30 288 0.0 9.7 0.00 0.00 0.00 78 1016.7
20260831222554 30 348 1.6 9.7 0.00 0.00 0.00 77 1016.7
20260831222053 31 314 0.0 4.8 0.00 0.00 0.00 76 1016.5
20260831221554 31 323 0.0 4.8 0.00 0.00 0.00 76 1016.5
20260831221052 31 220 0.0 4.8 0.00 0.00 0.00 77 1016.5
20260831220551 31 301 0.0 6.4 0.00 0.00 0.00 75 1016.3
20260831220052 31 304 0.0 6.4 0.00 0.00 0.00 74 1016.4
20260831215550 31 297 1.6 6.4 0.00 0.00 0.00 73 1016.5
20260831215049 32 326 0.0 8.0 0.00 0.00 0.00 73 1016.5
20260831214618 31 340 0.0 8.0 0.00 0.00 0.00 74 1016.4
20260831214048 31 338 0.0 4.8 0.00 0.00 0.00 73 1016.5
20260831213548 31 333 0.0 6.4 0.00 0.00 0.00 74 1016.6
20260831213048 31 304 0.0 6.4 0.00 0.00 0.00 74 1016.5
20260831212547 31 255 1.6 8.0 0.00 0.00 0.00 73 1016.5
20260831212150 32 213 1.6 6.4 0.00 0.00 0.00 73 1016.5
20260831211546 32 142 0.0 4.8 0.00 0.00 0.00 74 1016.5
20260831211047 32 268 0.0 6.4 0.00 0.00 0.00 75 1016.5
20260831210550 32 309 1.6 6.4 0.00 0.00 0.00 73 1016.6
20260831210043 32 290 1.6 8.0 0.00 0.00 0.00 72 1016.6
20260831205543 32 331 1.6 8.0 0.00 0.00 0.00 72 1016.7
20260831205042 32 304 0.0 6.4 0.00 0.00 0.00 74 1016.6
20260831204542 32 290 0.0 4.8 0.00 0.00 0.00 73 1016.6
20260831204041 32 250 0.0 11.3 0.00 0.00 0.00 74 1016.7
20260831203544 32 343 3.2 11.3 0.00 0.00 0.00 71 1016.7
20260831203039 33 268 0.0 17.7 0.00 0.00 0.00 72 1016.6
20260831202542 32 295 1.6 17.7 0.00 0.00 0.00 74 1016.6
20260831202038 32 114 1.6 6.4 0.00 0.00 0.00 75 1016.6
20260831201539 32 305 3.2 9.7 0.00 0.00 0.00 72 1016.5
20260831201036 33 345 1.6 9.7 0.00 0.00 0.00 73 1016.5
20260831200537 32 302 0.0 6.4 0.00 0.00 0.00 73 1016.5
20260831200041 33 127 1.6 9.7 0.00 0.00 0.00 72 1016.6
20260831195533 33 350 0.0 9.7 0.00 0.15 0.00 72 1016.5
20260831195035 33 321 0.0 4.8 0.00 0.15 0.00 73 1016.6
20260831194531 33 317 1.6 4.8 0.00 0.15 0.00 73 1016.7
20260831194032 33 109 0.0 4.8 0.00 0.15 0.00 75 1016.7
20260831193531 33 337 0.0 6.4 0.00 0.15 0.00 75 1016.7
20260831193033 32 326 1.6 6.4 0.00 0.15 0.00 75 1016.7
20260831192527 32 72 0.0 6.4 0.00 0.15 0.00 76 1016.6
20260831192028 32 321 0.0 9.7 0.00 0.15 0.00 75 1016.8
20260831191528 32 118 1.6 9.7 0.00 0.15 0.00 74 1016.7
20260831191025 33 143 1.6 9.7 0.00 0.15 0.00 78 1016.8
20260831190525 32 320 1.6 9.7 0.00 0.15 0.00 76 1016.8
20260831190042 32 1 0.0 4.8 0.00 0.15 0.00 79 1017.0
20260831185522 31 215 0.0 3.2 0.00 0.71 0.00 78 1017.0
20260831185023 32 294 0.0 3.2 0.00 0.71 0.00 77 1017.0
20260831184523 32 14 0.0 3.2 0.00 0.71 0.00 77 1017.0
20260831184021 32 257 0.0 6.4 0.00 0.71 0.00 78 1017.2
20260831183521 32 288 0.0 6.4 0.00 0.71 0.00 75 1017.2
20260831183027 32 232 0.0 3.2 0.00 0.71 0.00 79 1017.3
20260831182522 31 261 0.0 3.2 0.00 0.71 0.00 79 1017.2
20260831182019 31 228 0.0 4.8 0.00 0.71 0.00 77 1017.3
20260831181519 32 225 0.0 4.8 0.00 0.71 0.00 78 1017.3
20260831181018 32 92 0.0 11.3 0.00 0.71 0.00 78 1017.5
20260831180519 32 328 1.6 11.3 0.00 0.71 0.00 78 1017.6
20260831180017 32 236 0.0 8.0 0.00 0.71 0.00 79 1017.6
20260831175517 32 295 1.6 8.0 0.00 0.71 0.00 78 1017.5
20260831175017 33 115 0.0 6.4 0.00 0.71 0.00 73 1017.6
20260831174514 33 275 0.0 8.0 0.00 0.71 0.00 78 1017.7
20260831174011 32 139 0.0 8.0 0.00 0.71 0.00 79 1017.7
20260831173510 31 204 0.0 6.4 0.00 0.71 0.00 80 1017.7
20260831173009 31 311 0.0 6.4 0.00 0.71 0.00 84 1018.0
20260831172609 30 108 0.0 4.8 0.00 0.71 0.00 81 1018.1
20260831172008 30 221 0.0 4.8 0.00 0.71 0.00 81 1018.1
20260831171509 31 200 0.0 6.4 0.00 0.71 0.00 82 1018.2
20260831171008 31 217 0.0 6.4 0.00 0.71 0.00 82 1018.2
20260831170507 31 316 0.0 6.4 0.00 0.71 0.00 80 1018.1
20260831170007 31 140 0.0 3.2 0.00 0.71 0.00 81 1018.1
20260831165506 31 122 0.0 3.2 0.00 0.71 0.00 80 1018.2
20260831165005 31 309 0.0 3.2 0.00 0.71 0.00 81 1018.4
20260831164504 31 343 0.0 6.4 0.00 0.71 0.00 80 1018.3
20260831164005 31 219 0.0 6.4 0.00 0.71 0.00 80 1018.3
20260831163504 31 246 0.0 3.2 0.00 0.71 0.00 80 1018.4
20260831163007 31 209 0.0 1.6 0.00 0.71 0.00 81 1018.5
20260831162503 31 130 0.0 6.4 0.00 0.71 0.00 80 1018.4
20260831162002 32 279 0.0 6.4 0.00 0.71 0.00 79 1018.5
20260831161504 31 106 0.0 6.4 0.00 0.71 0.00 80 1018.5
20260831161103 31 322 0.0 6.4 0.00 0.71 0.00 81 1018.5
20260831160559 31 343 0.0 3.2 0.00 0.71 0.00 78 1018.7
20260831160105 32 122 0.0 1.6 0.00 0.71 0.00 79 1018.6
20260831155558 32 179 0.0 3.2 0.00 0.71 0.00 77 1018.6
20260831155057 32 23 0.0 3.2 0.00 0.71 0.00 75 1018.6
20260831154607 32 292 0.0 3.2 0.00 0.71 0.00 76 1018.8
20260831154052 32 307 0.0 3.2 0.00 0.71 0.00 76 1018.8
20260831153552 32 300 0.0 1.6 0.00 0.71 0.00 77 1018.8
20260831153050 32 257 0.0 1.6 0.00 0.71 0.00 77 1018.7
20260831152551 32 304 0.0 3.2 0.00 0.71 0.00 73 1018.8
20260831152048 32 160 0.0 3.2 0.00 0.71 0.00 77 1018.7
20260831151547 31 153 0.0 4.8 0.00 0.71 0.00 78 1018.9
20260831151043 31 141 0.0 4.8 0.00 0.71 0.00 77 1018.8
20260831150543 31 15 0.0 3.2 0.00 0.71 0.00 79 1018.7
20260831150040 31 320 0.0 3.2 0.00 0.71 0.00 78 1018.7
20260831145538 30 296 0.0 3.2 0.00 0.71 0.00 80 1018.8
20260831145036 30 191 1.6 3.2 0.00 0.71 0.00 81 1018.7
20260831144536 30 228 0.0 3.2 0.00 0.71 0.00 82 1018.6
20260831144035 30 246 0.0 3.2 0.00 0.71 0.00 82 1018.6
20260831143535 30 229 0.0 3.2 0.00 0.71 0.00 83 1018.6
20260831143031 30 216 0.0 3.2 0.00 0.71 0.00 83 1018.5
20260831142530 29 314 0.0 1.6 0.00 0.71 0.00 83 1018.4
20260831142026 29 252 0.0 3.2 0.00 0.71 0.00 85 1018.4
20260831141528 28 238 0.0 1.6 0.00 0.71 0.00 85 1018.3
20260831141024 28 245 0.0 3.2 0.00 0.71 0.00 85 1018.4
20260831140522 28 238 0.0 3.2 0.00 0.71 0.00 87 1018.3
20260831140034 27 241 0.0 1.6 0.00 0.71 0.00 88 1018.3
20260831135520 27 242 0.0 1.6 0.00 0.71 0.00 89 1018.2
20260831135023 27 110 0.0 0.0 0.00 0.71 0.00 90 1018.1
20260831134516 26 110 0.0 0.0 0.00 0.71 0.00 90 1017.9
20260831134014 26 110 0.0 1.6 0.00 0.71 0.00 90 1017.9
20260831133514 26 110 0.0 1.6 0.00 0.71 0.00 91 1017.9
20260831133011 26 141 0.0 1.6 0.00 0.71 0.00 93 1017.8
20260831132510 25 141 0.0 1.6 0.00 0.71 0.00 94 1017.8
20260831132009 25 132 0.0 1.6 0.00 0.71 0.00 95 1017.7
20260831131511 25 124 0.0 1.6 0.00 0.71 0.00 95 1017.8
20260831131008 25 321 0.0 0.0 0.00 0.71 0.00 95 1017.7
20260831130506 25 321 0.0 1.6 0.00 0.71 0.00 95 1017.7
20260831130008 25 321 0.0 1.6 0.00 0.71 0.00 95 1017.8
20260831125506 25 309 0.0 0.0 0.00 0.71 0.00 95 1017.7
20260831125004 25 309 0.0 0.0 0.00 0.71 0.00 95 1017.7
20260831124503 25 309 0.0 0.0 0.00 0.71 0.00 95 1017.7
20260831124001 25 309 0.0 0.0 0.00 0.71 0.00 95 1017.6
20260831123600 25 309 0.0 0.0 0.00 0.71 0.00 95 1017.6
20260831123100 25 309 0.0 0.0 0.00 0.71 0.00 95 1017.6
20260831122557 25 309 0.0 0.0 0.00 0.71 0.00 95 1017.5
20260831122059 25 309 0.0 0.0 0.00 0.71 0.00 95 1017.5
20260831121555 25 309 0.0 0.0 0.00 0.71 0.00 95 1017.5
20260831121054 24 309 0.0 0.0 0.00 0.71 0.00 95 1017.4
20260831120553 24 309 0.0 0.0 0.00 0.71 0.00 95 1017.4
20260831120057 24 309 0.0 0.0 0.00 0.71 0.00 95 1017.4
20260831115551 24 309 0.0 0.0 0.00 0.71 0.00 95 1017.2
20260831115049 23 309 0.0 0.0 0.00 0.71 0.00 95 1017.2
20260831114549 23 309 0.0 0.0 0.00 0.71 0.00 95 1017.2
20260831114052 23 309 0.0 0.0 0.00 0.71 0.00 95 1017.1
20260831113547 23 309 0.0 0.0 0.00 0.71 0.00 95 1017.1
20260831113107 23 309 0.0 0.0 0.00 0.71 0.00 95 1017.2
20260831112548 23 309 0.0 0.0 0.00 0.71 0.00 95 1017.1
20260831112045 23 309 0.0 0.0 0.00 0.71 0.00 95 1017.0
20260831111544 23 309 0.0 0.0 0.00 0.71 0.00 95 1017.0
20260831111044 23 309 0.0 0.0 0.00 0.71 0.00 95 1016.9
20260831110547 23 309 0.0 0.0 0.00 0.71 0.00 95 1016.8
20260831110044 23 309 0.0 0.0 0.00 0.71 0.00 95 1016.7
20260831105542 23 309 0.0 0.0 0.00 0.71 0.00 95 1016.6
20260831105042 23 309 0.0 0.0 0.00 0.71 0.00 95 1016.7
20260831104541 23 309 0.0 0.0 0.00 0.71 0.00 95 1016.7
20260831104042 23 309 0.0 0.0 0.00 0.71 0.00 95 1016.7
20260831103541 23 309 0.0 0.0 0.00 0.71 0.00 95 1016.6
20260831103047 23 309 0.0 0.0 0.00 0.71 0.00 95 1016.6
20260831102541 23 309 0.0 0.0 0.00 0.71 0.00 95 1016.5
20260831102039 23 309 0.0 0.0 0.00 0.71 0.00 95 1016.5
20260831101539 23 309 0.0 0.0 0.00 0.71 0.00 95 1016.4
20260831101037 23 309 0.0 0.0 0.00 0.71 0.00 95 1016.5
20260831100539 23 309 0.0 0.0 0.00 0.71 0.00 95 1016.5
20260831100038 23 309 0.0 0.0 0.00 0.71 0.00 95 1016.4
20260831095535 23 309 0.0 0.0 0.00 0.71 0.00 95 1016.3
20260831095034 23 309 0.0 0.0 0.00 0.71 0.00 95 1016.4
20260831094539 23 309 0.0 0.0 0.00 0.71 0.00 95 1016.3
20260831094036 23 309 0.0 0.0 0.00 0.71 0.00 95 1016.4
20260831093536 23 309 0.0 0.0 0.00 0.71 0.00 95 1016.3
20260831093033 23 309 0.0 0.0 0.00 0.71 0.00 95 1016.4
20260831092531 23 309 0.0 0.0 0.00 0.71 0.00 94 1016.5
20260831092029 23 309 0.0 0.0 0.00 0.71 0.00 94 1016.5
20260831091536 23 309 0.0 0.0 0.00 0.71 0.00 94 1016.4
20260831091030 23 309 0.0 0.0 0.00 0.71 0.00 94 1016.3
20260831090530 23 309 0.0 0.0 0.00 0.71 0.00 94 1016.2
20260831090027 23 309 0.0 0.0 0.00 0.71 0.00 94 1016.2
20260831085530 23 309 0.0 0.0 0.00 0.71 0.00 94 1016.2
20260831085027 23 309 0.0 0.0 0.00 0.71 0.00 94 1016.2
20260831084529 23 309 0.0 0.0 0.00 0.71 0.00 94 1016.2
20260831084024 23 309 0.0 0.0 0.00 0.71 0.00 94 1016.2
20260831083524 23 309 0.0 0.0 0.00 0.71 0.00 94 1016.2
20260831083023 23 309 0.0 0.0 0.00 0.71 0.00 94 1016.3
20260831082521 23 309 0.0 0.0 0.00 0.71 0.00 94 1016.1
20260831082019 23 309 0.0 0.0 0.00 0.71 0.00 94 1016.2
20260831081522 23 309 0.0 0.0 0.00 0.71 0.00 94 1016.2
20260831081019 23 309 0.0 0.0 0.00 0.71 0.00 94 1016.3
20260831080518 23 309 0.0 0.0 0.00 0.71 0.00 94 1016.3
20260831080029 23 309 0.0 0.0 0.00 0.71 0.00 94 1016.3
20260831075516 23 309 0.0 0.0 0.00 0.71 0.00 94 1016.3
20260831075016 24 309 0.0 0.0 0.00 0.71 0.00 94 1016.3
20260831074515 23 309 0.0 0.0 0.00 0.71 0.00 94 1016.4
20260831074015 23 309 0.0 0.0 0.00 0.71 0.00 94 1016.5
20260831073514 23 309 0.0 0.0 0.00 0.71 0.00 94 1016.5
20260831073014 23 309 0.0 0.0 0.00 0.71 0.00 94 1016.6
20260831072516 23 309 0.0 0.0 0.00 0.71 0.00 94 1016.6
20260831072011 24 309 0.0 0.0 0.00 0.71 0.00 94 1016.5
20260831071510 24 309 0.0 0.0 0.00 0.71 0.00 94 1016.6
20260831071011 23 309 0.0 0.0 0.00 0.71 0.00 94 1016.6
20260831070512 23 309 0.0 0.0 0.00 0.71 0.00 94 1016.7
20260831070012 24 309 0.0 0.0 0.00 0.71 0.00 94 1016.6
20260831065508 24 309 0.0 0.0 0.00 0.71 0.00 94 1016.7
20260831065007 24 309 0.0 0.0 0.00 0.71 0.00 94 1016.6
20260831064507 24 309 0.0 0.0 0.00 0.71 0.00 94 1016.6
20260831064008 24 309 0.0 0.0 0.00 0.71 0.00 94 1016.7
20260831063505 24 309 0.0 0.0 0.00 0.71 0.00 94 1016.8
20260831063007 24 309 0.0 0.0 0.00 0.71 0.00 94 1016.9
20260831062503 24 309 0.0 0.0 0.00 0.71 0.00 94 1016.8
20260831062003 24 309 0.0 0.0 0.00 0.71 0.00 94 1016.9
20260831061501 24 309 0.0 0.0 0.00 0.71 0.00 94 1016.9
20260831061100 24 309 0.0 0.0 0.00 0.71 0.00 94 1016.9
20260831060559 24 309 0.0 0.0 0.00 0.71 0.00 94 1017.0
20260831060058 24 309 0.0 0.0 0.00 0.71 0.00 94 1017.0
20260831055557 24 309 0.0 0.0 0.00 0.71 0.00 94 1017.0
20260831055057 24 309 0.0 0.0 0.00 0.71 0.00 94 1016.9
20260831054557 24 309 0.0 0.0 0.00 0.71 0.00 93 1017.0
20260831054057 24 309 0.0 0.0 0.00 0.71 0.00 93 1017.1
20260831053555 24 309 0.0 0.0 0.00 0.71 0.00 93 1017.0
20260831053056 24 309 0.0 0.0 0.00 0.71 0.00 93 1017.0
20260831052553 24 309 0.0 0.0 0.00 0.71 0.00 94 1017.0
20260831052053 24 309 0.0 0.0 0.00 0.71 0.00 93 1017.1
20260831051559 24 309 0.0 0.0 0.00 0.71 0.00 93 1017.1
20260831051052 24 309 0.0 0.0 0.00 0.71 0.00 93 1017.1
20260831050551 24 309 0.0 0.0 0.00 0.71 0.00 93 1017.0
20260831050053 24 309 0.0 0.0 0.00 0.71 0.00 93 1017.0
20260831045550 24 309 0.0 0.0 0.00 0.71 0.00 93 1017.0
20260831045049 24 309 0.0 0.0 0.00 0.71 0.00 93 1017.1
20260831044554 24 309 0.0 0.0 0.00 0.71 0.00 93 1017.0
20260831044047 24 309 0.0 0.0 0.00 0.71 0.00 93 1017.0
20260831043547 24 309 0.0 0.0 0.00 0.71 0.00 93 1017.0
20260831043045 24 309 0.0 0.0 0.00 0.71 0.00 93 1017.0
20260831042549 24 309 0.0 0.0 0.00 0.71 0.00 93 1017.0
20260831042047 24 309 0.0 0.0 0.00 0.71 0.00 93 1017.0
20260831041548 24 309 0.0 0.0 0.00 0.71 0.00 93 1017.0
20260831041042 24 309 0.0 0.0 0.00 0.71 0.00 93 1017.1
20260831040541 24 309 0.0 0.0 0.00 0.71 0.00 93 1017.1
20260831040040 24 309 0.0 0.0 0.00 0.71 0.00 93 1017.1
20260831035541 24 309 0.0 0.0 0.00 0.71 0.71 93 1017.2
20260831035038 24 309 0.0 0.0 0.00 0.71 0.71 93 1017.2
20260831034546 24 309 0.0 0.0 0.00 0.71 0.71 93 1017.3
20260831034038 25 309 0.0 0.0 0.00 0.71 0.71 93 1017.4
20260831033538 25 309 0.0 0.0 0.00 0.71 0.71 93 1017.4
20260831033038 24 309 0.0 0.0 0.00 0.71 0.71 93 1017.5
20260831032537 25 309 0.0 0.0 0.00 0.71 0.71 93 1017.5
20260831032039 24 309 0.0 0.0 0.00 0.71 0.71 93 1017.5
20260831031536 25 309 0.0 0.0 0.00 0.71 0.71 93 1017.6
20260831031034 24 309 0.0 0.0 0.00 0.71 0.71 93 1017.6
20260831030534 24 309 0.0 0.0 0.00 0.71 0.71 93 1017.6
20260831030033 24 309 0.0 0.0 0.00 0.71 0.71 93 1017.7
20260831025533 24 309 0.0 0.0 0.00 0.71 0.71 93 1017.7
20260831025033 24 309 0.0 0.0 0.00 0.71 0.71 93 1017.7
20260831024535 24 309 0.0 0.0 0.00 0.71 0.71 93 1017.7
20260831024031 24 309 0.0 0.0 0.00 0.71 0.71 93 1017.8
20260831023531 24 309 0.0 0.0 0.00 0.71 0.71 92 1017.9
20260831023029 24 309 0.0 0.0 0.00 0.71 0.71 92 1018.0
20260831022529 24 309 0.0 0.0 0.00 0.71 0.71 92 1017.9
20260831022028 25 309 0.0 0.0 0.00 0.71 0.71 92 1017.8
20260831021530 25 309 0.0 0.0 0.00 0.71 0.71 92 1017.9
20260831021027 25 309 0.0 0.0 0.00 0.71 0.71 92 1017.9
20260831020526 25 309 0.0 0.0 0.00 0.71 0.71 92 1017.9
20260831020026 25 309 0.0 0.0 0.00 0.71 0.71 91 1018.1
20260831015524 25 309 0.0 0.0 0.00 0.71 0.71 91 1018.1
20260831015026 25 309 0.0 0.0 0.00 0.71 0.71 91 1018.0
20260831014528 25 309 0.0 0.0 0.00 0.71 0.71 91 1018.0
20260831014023 25 309 0.0 0.0 0.00 0.71 0.71 91 1018.0
20260831013522 25 309 0.0 0.0 0.00 0.71 0.71 91 1017.9
20260831013022 25 309 0.0 0.0 0.00 0.71 0.71 91 1017.8
20260831012524 25 309 0.0 0.0 0.00 0.71 0.71 90 1017.9
20260831012020 25 309 0.0 0.0 0.00 0.71 0.71 90 1017.9
20260831011533 25 309 0.0 0.0 0.00 0.71 0.71 90 1017.9
20260831011018 25 309 0.0 0.0 0.00 0.71 0.71 90 1017.8
20260831010518 25 309 0.0 0.0 0.00 0.71 0.71 90 1017.8
20260831010016 25 309 0.0 0.0 0.00 0.71 0.71 90 1017.9
20260831005517 25 309 0.0 0.0 0.00 0.71 0.71 90 1017.8
20260831005017 25 309 0.0 0.0 0.00 0.71 0.71 89 1017.8
20260831004516 25 309 0.0 0.0 0.00 0.71 0.71 89 1017.7
20260831004018 25 309 0.0 0.0 0.00 0.71 0.71 89 1017.7
20260831003517 25 314 0.0 0.0 0.00 0.71 0.71 89 1017.5
20260831003014 25 314 0.0 0.0 0.00 0.71 0.71 89 1017.4
20260831002512 25 314 0.0 0.0 0.00 0.71 0.71 88 1017.3
20260831002012 25 314 0.0 0.0 0.00 0.71 0.71 88 1017.4
20260831001511 25 314 0.0 0.0 0.00 0.71 0.71 88 1017.4
20260831001011 26 314 0.0 0.0 0.00 0.71 0.71 88 1017.3
20260831000510 26 314 0.0 0.0 0.00 0.71 0.71 88 1017.1
20260831000011 26 314 0.0 0.0 0.00 0.71 0.71 88 1017.2
20260830235511 26 314 0.0 0.0 0.00 0.71 0.71 87 1017.4
20260830235008 26 314 0.0 0.0 0.00 0.71 0.71 87 1017.3
20260830234508 26 314 0.0 0.0 0.00 0.71 0.71 87 1017.2